Погода в Междуреченском

Россия / Ханты-Мансийский автономный округ - Югра     59°35′25″N   65°54′33″E
темп.,
°C
ветер,
м/с
пор.,
м/с
влажн.,
%
обл.,
%
осадки,
мм/ч
давл.,
гПа
погр.,
м
10 мая, пн
пн1023:00+14вюв4116289 0.0 1023334
02:00+11вюв3106997 0.0 1024246
05:00+10вюв267325 0.0 1026140
08:00+14вюв35475 0.0 1027508
11:00+18вюв343727 0.0 10271212
14:00+20в333220 0.0 10271735
17:00+20вюв33305 0.0 10261723
20:00+16вюв22475 0.0 102626
11 мая, вт
вт1123:00+12юв225324 0.0 102731
02:00+10ю235838 0.0 102753
05:00+10ююз2458100 0.0 102763
08:00+16юз244333 0.0 1026330
11:00+20юз3431100 0.0 10261413
14:00+22зюз4627100 0.0 10251840
17:00+21з473379 0.0 10242142
20:00+17з385971 0.1 1025458
12 мая, ср
ср1223:00+13ссз3881100 0.3 1026424
02:00+10с259295 0.0 1027136
05:00+8с248777 0.0 1028100
08:00+13сз2360100 0.0 1028464
11:00+16сз4641100 0.0 10271156
14:00+15сз4646100 0.0 1027854
17:00+17сз474970 0.0 10261480
20:00+14сз3671100 0.1 1026342
13 мая, чт
чт1323:00+13зсз238292 0.3 102685
02:00+12з2385100 0.0 102556
05:00+13з2781100 0.0 1024185
08:00+17сз3667100 0.0 1024407
11:00+19зсз59575 0.0 10231068
14:00+23сз7124143 0.0 10232492
17:00+22с594210 0.0 10231687
20:00+18св365913 0.0 1025220
14 мая, пт
пт1423:00+12всв26705 0.0 1027134
02:00+10юв24730 0.0 102784
05:00+9ююв257621 0.0 1027118
08:00+14ююз376398 0.0 1025350
11:00+20юз4755100 0.0 1023550
14:00+26з693295 0.0 10192948
17:00+24з594245 0.0 10181335
20:00+18юз24775 1.2 101793